Location: Christian Reformed Church
(43.0975°N, 93.8113°W)
Time: 09:20:18
(UTC+00:00)

IRS-P3 - Pass Details

Date: 19 March 2026
Orbit: 810 x 816 km, 99.0° (Epoch: 20 April)

Event Time Altitude Azimuth Distance (km) Brightness Sun altitude
Rises 01:46:01 0° 208° (SSW) 3,329 7.5 -15.4°
Reaches altitude 10° 01:49:09 10° 227° (SW) 2,402 7.0 -15.9°
Maximum altitude 01:52:38 18° 268° (W) 1,927 7.1 -16.6°
Drops below altitude 10° 01:56:09 10° 310° (NW) 2,413 7.6 -17.2°
Sets 01:59:18 0° 330° (NNW) 3,349 8.1 -17.7°
